Flag for U.S.A. Weather past 2 weeks in Los Angeles, California, U.S.A.

Now
67 °F

Sunny.


Feels Like: 67 °F
Forecast: 57 / 77 °F
Wind: 8 mph from West

Location: Los Angeles / USC Campus Downtown


UV Index: 5 (Moderate)

Visibility: 10 mi


Pressure: 29.97 "Hg

Humidity: 63%

Dew point: 54 °F

Location of Los AngelesLocation

Historic Weather in Los Angeles

°F

Los Angeles temperature yesterday

Maximum temperature yesterday: 71 °F (at 12:47 PM)
Minimum temperature yesterday: 61 °F (at 5:47 AM)
Average temperature yesterday: 65 °F

Past Weeks' High & Low Weather Summary

 TemperatureHumidityPressure
High88 °F (Apr 8, 1:47 PM)96% (Apr 10, 6:47 AM)30.09 "Hg (Apr 10, 6:47 AM)
Low50 °F (Apr 10, 5:47 AM)15% (Apr 9, 12:47 PM)29.78 "Hg (Apr 16, 4:47 PM)
Average64 °F61%29.95 "Hg
* Reported Apr 4 3:47 PM — Apr 19 3:47 PM, Los Angeles, Weather by CustomWeather, © 2014

Note: Actual official high and low records may vary slightly from our data, if they occured in-between our weather recording intervals... More about our weather records

Advertising

Historic Weather Conditions — Data for Previous 24 hours

 ConditionsComfort  
Time TempWeatherWind HumidityBarometerVisibility
3:47 PM
Apr 19
69 °FSunny.6 mph55%29.96 "Hg10 mi
2:47 PM70 °FSunny.No wind53%29.97 "Hg10 mi
1:47 PM70 °FSunny.5 mph55%29.98 "Hg10 mi
12:47 PM71 °FSunny.3 mph53%29.99 "Hg10 mi
11:47 AM69 °FSunny.3 mph57%30.00 "Hg10 mi
10:47 AM69 °FSunny.No wind59%29.99 "Hg10 mi
9:47 AM68 °FSunny.3 mph61%29.98 "Hg9 mi
8:47 AM64 °FSunny.No wind70%29.97 "Hg7 mi
7:47 AM61 °FSunny.No wind72%29.97 "Hg8 mi
6:47 AM57 °FClear.No wind83%29.96 "Hg7 mi
5:47 AM57 °FClear.No wind83%29.94 "Hg8 mi
4:47 AM59 °FClear.No wind81%29.94 "Hg8 mi
3:47 AM60 °FClear.3 mph78%29.93 "Hg9 mi
2:47 AM61 °FClear.No wind72%29.93 "Hg9 mi
1:47 AM60 °FClear.No wind78%29.94 "Hg8 mi
12:47 AM61 °FClear.No wind75%29.94 "Hg9 mi
11:47 PM
Apr 18
62 °FClear.No wind70%29.93 "Hg10 mi
10:47 PM63 °FClear.No wind65%29.92 "Hg10 mi
9:47 PM63 °FClear.No wind68%29.92 "Hg10 mi
8:47 PM63 °FClear.No wind68%29.91 "Hg10 mi
7:47 PM63 °FSunny.No wind68%29.89 "Hg10 mi
6:47 PM65 °FSunny.No wind63%29.87 "Hg10 mi
5:47 PM67 °FSunny.No wind59%29.87 "Hg10 mi
Weather by CustomWeather, © 2014

See weather overview